Simultaneous Nadir Overpasses (SNOs) Predictions

Prediction of SNOs between GOES-16 and LANDSAT-8 Satellite Orbit:

Table of predicted SNOs for the next 14.0 days since TLE Epoch: 9/26/2020
Index Date Time (GOES-16) GOES-16 Lat,Lon LANDSAT-8 Lat,Lon Distance(km) Time Diff (sec)
1 09/28/2020 03:03:49 0.02, -75.18 0.42, -73.20 225.46 80
2 09/28/2020 15:27:45 -0.01, -75.20 0.66, -78.36 358.77 80
3 09/30/2020 15:15:34 -0.02, -75.22 0.03, -75.40 21.34 80
4 10/02/2020 15:00:43 -0.02, -75.24 -0.60, -72.44 316.87 80
5 10/03/2020 03:24:47 0.02, -75.22 -0.52, -77.63 274.57 80
6 10/05/2020 03:09:57 0.02, -75.25 0.17, -74.69 64.32 80
7 10/07/2020 02:57:45 0.02, -75.27 0.74, -71.72 403.33 80
8 10/07/2020 15:21:41 -0.01, -75.30 0.33, -76.88 180.44 80
9 10/09/2020 15:06:50 -0.01, -75.33 -0.31, -73.93 158.93 80
10 10/10/2020 03:30:54 0.01, -75.32 -0.81, -79.12 432.09 80
